sat.trackr.live / text

‹ back to catalog

LUCH 5V (SDCM/PRN 141)

NORAD 39727 · 2014-023A

PAYLOAD ACTIVE UNKNOWN

§ Identity

Operator
Country
CIS
Launch date
2014-04-28
Launch site
TYMSC
Launch vehicle
Mass (kg)
RCS (m²)
22.59

Purposes: comms, earth_obs, nav

External: N2YO · Heavens-Above · Gunter

§ Orbital elements

Epoch: 2026-05-24T21:27:21.877344Z

Period
1,436.09 min
Inclination
5.0782°
Eccentricity
0.0002131
Mean motion
1.00272142 rev/d
Perigee alt
35,777.5 km
Apogee alt
35,795.5 km
Semi-major
42,164.6 km
B*
0.0000e+0
RAAN
69.9818°
Arg perigee
13.4782°
Mean anomaly
215.6344°
Rev number
4,412

§ Raw data

LUCH 5V (SDCM/PRN 141)1 39727U 14023A   26144.89400321 -.00000271  00000+0  00000+0 0  99912 39727   5.0782  69.9818 0002131  13.4782 215.6344  1.00272142 44120

JSON: /api/v1/satellites/39727 · /tle

For live sub-satellite position, see the globe view (requires WebGL).

§ Visibility from observer

Set your observer location to see the next 7 days of passes ≥ 10°. The values pass through the URL so the page stays shareable.

No JS? Fill the form by hand. The geolocation button needs JavaScript.